STARLINK-1216, 45185

Orbit data source: Space-Track

STARLINK-1216, 45185 is a payload satellite owned by SpaceX/Seattle (US) in LEO that was launched on Mon, 17 Feb 2020 UTC via an FALCON 9 launch vehicle from the Air Force Eastern Test Range (AFETR). Payload-class satellites include a variety of spacecraft equipped with specific instruments for various scientific and technological missions. These include communications satellites like Starlink; space stations such as the ISS; scientific satellites like the Hubble; Earth observation satellites from companies like Planet Labs, Umbra, and HawkEye 360; GPS; miniature CubeSats for education and research; and military/defense satellites.

Loading next visibility...
Identifier
45185, 2020-012H
Orbit
LEO
Country
Flag of USUS
Related business
Manufacturer
SpaceX/Seattle
Mission
Partially operational Commercial Communications
Bus & Motor
STARLINK, Unknown motor
Mass
260 kg wet, ~248 kg dry
Launch date (UTC)
2020-02-17 (6 years ago)
Launch vehicle
FALCON 9
Launch site
Air Force Eastern Test Range (AFETR)
Object type
Payload
Rocket body
Debris
Shape & HBR
Box + 1 Pan, 10.1 m
Radar Cross Section
13.562 m², Large (>1 m²)

Expand to show TLE details & history
Last TLE update: 15 hours ago

TLE from 15 hours ago
0 STARLINK-1216
1 45185U 20012H   26124.30978411  .00042509  00000-0  13494-2 0  9999
2 45185  53.1569 140.6849 0003020  50.7715 309.3554 15.32273056343414
Epoch: 2026-05-04T07:26Z
TLE epoch observation values (Epoch: 2026-05-04T07:26:05.347Z)
Latitude
-0.00003°
Longitude
166.96178°
Altitude
468.622 km
Speed
7.634 km/s
True Right ascension
09h 22m 44s
True Declination
0° 00' 00"
Sunlit
Object was in daylight at epoch
Visualization orbit readout
Latitude
Unknown
Longitude
Unknown
Altitude
Unknown
Speed
Unknown
Apparent Right ascension
Unknown
Apparent Declination
Unknown
Sunlit
N/A
Visualization observer readout
Local Sidereal Time
06:40:49
Azimuth
Unknown
Elevation
Unknown
Doppler factor
Unknown
Orbital elements
Apogee altitude
471.357 km
Perigee altitude
467.222 km
Semi-major axis
6,847.426 km
Eccentricity
0.0003
Inclination
53.1569°
RAAN
140.6849°
Arg. of periapsis
50.7715°
True anomaly
309.32863°
Mean anomaly
309.3554°
Eccentric anomaly
309.34202°
Mean motion
3.83047 °/min
Orbital period
93.98 mins
BSTAR
0.0013494
Loading maneuver chart data...
Computing Atmospheric mass density...
Loading historical data...
Loading historical data...
Loading historical data...
Loading historical data...
Loading historical data...
Loading historical data...
Loading historical data...

Documentation

Showing up to 5 results
|